GW2622 Weather Reports


Display with metric or nautical units.
time (UTC)temp
F
wind
direction
speed
MPH
gust
MPH
rain 1hr
in
rain 24hr
in
rain mn
in
humidity
%
barometer
mb
20260903115100 75 237 2.0 3.0 0.00 0.00 0.00 87 1012.4
20260903114555 75 222 2.0 3.0 0.00 0.00 0.00 87 1012.5
20260903114046 75 232 2.0 3.0 0.00 0.00 0.00 87 1012.4
20260903113541 75 221 2.0 3.0 0.00 0.00 0.00 87 1012.4
20260903113037 75 212 3.0 3.0 0.00 0.00 0.00 86 1012.4
20260903112533 75 244 3.0 3.0 0.00 0.00 0.00 86 1012.5
20260903112028 75 211 3.0 5.0 0.00 0.00 0.00 86 1012.2
20260903111526 75 214 3.0 3.0 0.00 0.00 0.00 87 1012.2
20260903111023 75 209 2.0 3.0 0.00 0.00 0.00 87 1012.2
20260903110518 75 213 3.0 3.0 0.00 0.00 0.00 87 1012.1
20260903110013 75 213 3.0 3.0 0.00 0.00 0.00 86 1011.8
20260903105508 76 195 3.0 5.0 0.00 0.00 0.00 86 1012.0
20260903105007 76 207 2.0 5.0 0.00 0.00 0.00 85 1012.1
20260903104502 77 213 4.0 5.0 0.00 0.00 0.00 85 1012.0
20260903103958 77 230 4.0 6.0 0.00 0.00 0.00 84 1012.0
20260903103454 77 217 5.0 5.0 0.00 0.00 0.00 84 1011.9
20260903102949 77 223 3.0 3.0 0.00 0.00 0.00 84 1011.7
20260903102444 77 215 4.0 6.0 0.00 0.00 0.00 83 1011.8
20260903101942 77 222 3.0 5.0 0.00 0.00 0.00 84 1011.8
20260903101432 77 237 2.0 5.0 0.00 0.00 0.00 84 1011.8
20260903100928 77 206 3.0 5.0 0.00 0.00 0.00 83 1011.7
20260903100423 77 220 4.0 5.0 0.00 0.00 0.00 83 1011.7
20260903095920 77 165 3.0 6.0 0.00 0.00 0.00 83 1011.6
20260903095414 77 219 3.0 5.0 0.00 0.00 0.00 83 1011.8
20260903094909 77 211 3.0 6.0 0.00 0.00 0.00 83 1011.8
20260903094403 78 218 4.0 5.0 0.00 0.00 0.00 82 1011.8
20260903093900 78 219 4.0 6.0 0.00 0.00 0.00 82 1011.9
20260903093354 78 210 4.0 6.0 0.00 0.00 0.00 81 1011.8
20260903092850 78 244 3.0 5.0 0.00 0.00 0.00 81 1011.8
20260903092349 78 184 3.0 6.0 0.00 0.00 0.00 81 1011.7
20260903091848 78 212 3.0 5.0 0.00 0.00 0.00 81 1011.6
20260903091348 78 221 5.0 7.0 0.00 0.00 0.00 80 1011.6
20260903090843 79 215 3.0 5.0 0.00 0.00 0.00 80 1011.8
20260903090338 79 217 3.0 6.0 0.00 0.00 0.00 80 1011.6
20260903085836 79 188 3.0 6.0 0.00 0.00 0.00 79 1011.7
20260903085335 79 198 4.0 6.0 0.00 0.00 0.00 79 1011.8
20260903084834 79 228 4.0 6.0 0.00 0.00 0.00 79 1011.6
20260903084333 79 200 4.0 6.0 0.00 0.00 0.00 79 1011.6
20260903083829 80 200 4.0 5.0 0.00 0.00 0.00 79 1011.6
20260903083325 80 216 4.0 6.0 0.00 0.00 0.00 78 1011.8
20260903082823 80 210 3.0 6.0 0.00 0.00 0.00 78 1011.7
20260903082319 80 190 4.0 6.0 0.00 0.00 0.00 78 1011.7
20260903081814 80 198 5.0 5.0 0.00 0.00 0.00 78 1011.6
20260903081309 80 215 4.0 7.0 0.00 0.00 0.00 78 1011.7
20260903080806 80 188 3.0 6.0 0.00 0.00 0.00 78 1011.7
20260903080304 80 213 3.0 6.0 0.00 0.00 0.00 77 1011.6
20260903075802 80 220 3.0 5.0 0.00 0.00 0.00 77 1011.7
20260903075257 80 196 5.0 7.0 0.00 0.00 0.00 77 1011.8
20260903074756 81 218 5.0 8.0 0.00 0.00 0.00 76 1011.8
20260903074252 81 218 4.0 7.0 0.00 0.00 0.00 77 1011.9
20260903073742 81 208 5.0 8.0 0.00 0.00 0.00 76 1011.7
20260903073237 81 210 6.0 7.0 0.00 0.00 0.00 76 1011.9
20260903072733 81 247 4.0 6.0 0.00 0.00 0.00 76 1011.9
20260903072229 81 230 4.0 8.0 0.00 0.00 0.00 76 1011.8
20260903071725 81 209 3.0 6.0 0.00 0.00 0.00 76 1011.9
20260903071215 81 214 4.0 6.0 0.00 0.00 0.00 76 1011.8
20260903070715 81 185 3.0 10.0 0.00 0.00 0.00 76 1011.8
20260903070210 81 210 5.0 7.0 0.00 0.00 0.00 76 1011.9
20260903065705 82 224 6.0 9.0 0.00 0.00 0.00 75 1011.9
20260903065159 81 201 6.0 9.0 0.00 0.00 0.00 76 1011.7
20260903064658 81 205 5.0 8.0 0.00 0.00 0.00 76 1011.8
20260903064153 81 174 5.0 7.0 0.00 0.00 0.00 76 1012.1
20260903063643 81 205 6.0 7.0 0.00 0.00 0.00 76 1012.0
20260903063138 81 209 4.0 7.0 0.00 0.00 0.00 76 1012.0
20260903062634 81 191 5.0 6.0 0.00 0.00 0.00 76 1012.0
20260903062129 81 213 4.0 6.0 0.00 0.00 0.00 76 1011.9
20260903061624 81 237 4.0 7.0 0.00 0.00 0.00 76 1012.0
20260903061123 80 213 4.0 5.0 0.00 0.00 0.00 77 1012.0
20260903060618 81 164 4.0 6.0 0.00 0.00 0.00 77 1012.1
20260903060114 81 213 5.0 6.0 0.00 0.00 0.00 77 1011.9
20260903055611 80 202 4.0 6.0 0.00 0.00 0.00 77 1011.9
20260903055109 80 188 4.0 6.0 0.00 0.00 0.00 78 1011.8
20260903054604 80 230 3.0 6.0 0.00 0.00 0.00 78 1012.1
20260903054101 80 204 3.0 5.0 0.00 0.00 0.00 79 1012.1
20260903053556 80 235 3.0 5.0 0.00 0.00 0.00 79 1012.0
20260903053052 80 191 3.0 5.0 0.00 0.00 0.00 79 1012.0
20260903052548 80 231 3.0 3.0 0.00 0.00 0.00 79 1012.2
20260903052043 80 257 2.0 3.0 0.00 0.00 0.00 79 1012.1
20260903051542 80 247 3.0 3.0 0.00 0.00 0.00 79 1012.3
20260903051038 80 209 2.0 3.0 0.00 0.00 0.00 79 1012.2
20260903050537 81 195 3.0 5.0 0.00 0.00 0.00 78 1012.1
20260903050033 81 212 4.0 5.0 0.00 0.00 0.00 78 1012.2
20260903045532 81 233 4.0 5.0 0.00 0.00 0.00 78 1012.1
20260903045029 81 175 3.0 6.0 0.00 0.00 0.00 77 1012.1
20260903044525 81 211 3.0 6.0 0.00 0.00 0.00 77 1012.1
20260903044020 81 211 3.0 5.0 0.00 0.00 0.00 77 1012.3
20260903043516 81 229 3.0 5.0 0.00 0.00 0.00 77 1012.1
20260903043015 81 211 4.0 6.0 0.00 0.00 0.00 77 1012.3
20260903042510 81 191 3.0 6.0 0.00 0.00 0.00 77 1012.1
20260903042006 81 206 4.0 6.0 0.00 0.00 0.00 77 1012.2
20260903041502 81 204 3.0 5.0 0.00 0.00 0.00 78 1012.3
20260903040957 81 213 3.0 5.0 0.00 0.00 0.00 77 1012.0
20260903040456 82 219 3.0 5.0 0.00 0.00 0.00 77 1012.1
20260903035953 82 217 3.0 6.0 0.00 0.00 0.00 77 1012.4
20260903035442 81 216 3.0 6.0 0.00 0.00 0.00 77 1012.0
20260903034937 81 224 4.0 5.0 0.00 0.00 0.00 77 1012.0
20260903034432 81 238 3.0 5.0 0.00 0.00 0.00 78 1012.3
20260903033927 81 220 3.0 3.0 0.00 0.00 0.00 77 1012.2
20260903033422 81 233 3.0 5.0 0.00 0.00 0.00 77 1012.2
20260903032917 81 211 3.0 5.0 0.00 0.00 0.00 78 1012.1
20260903032413 81 261 1.0 2.0 0.00 0.00 0.00 78 1012.3
20260903031913 82 229 1.0 3.0 0.00 0.00 0.00 77 1012.0
20260903031413 82 221 3.0 3.0 0.00 0.00 0.00 76 1012.2
20260903030903 82 187 3.0 3.0 0.00 0.00 0.00 75 1012.1
20260903030359 82 229 2.0 6.0 0.00 0.00 0.00 76 1012.0
20260903025855 82 242 2.0 2.0 0.00 0.00 0.00 76 1012.0
20260903025350 82 263 2.0 2.0 0.00 0.00 0.00 75 1012.2
20260903024849 82 232 2.0 3.0 0.00 0.00 0.00 75 1012.3
20260903024343 83 212 2.0 3.0 0.00 0.00 0.00 75 1012.0
20260903023839 83 225 3.0 3.0 0.00 0.00 0.00 74 1012.0
20260903023334 83 211 3.0 5.0 0.00 0.00 0.00 74 1012.1
20260903022829 83 227 3.0 5.0 0.00 0.00 0.00 74 1011.9
20260903022329 84 204 3.0 5.0 0.00 0.00 0.00 74 1012.0
20260903021823 84 225 2.0 3.0 0.00 0.00 0.00 74 1012.0
20260903021319 84 206 3.0 3.0 0.00 0.00 0.00 73 1012.0
20260903020818 84 232 2.0 3.0 0.00 0.00 0.00 73 1012.1
20260903020313 84 173 3.0 5.0 0.00 0.00 0.00 73 1011.9
20260903015809 84 223 2.0 3.0 0.00 0.00 0.00 74 1012.1
20260903015309 84 210 3.0 3.0 0.00 0.00 0.00 73 1012.0
20260903014804 84 198 3.0 5.0 0.00 0.00 0.00 73 1011.8
20260903014304 84 218 3.0 5.0 0.00 0.00 0.00 74 1011.9
20260903013759 85 200 2.0 5.0 0.00 0.00 0.00 74 1011.8
20260903013258 85 210 3.0 3.0 0.00 0.00 0.00 73 1011.7
20260903012757 85 253 2.0 3.0 0.00 0.00 0.00 73 1011.6
20260903012251 86 181 3.0 5.0 0.00 0.00 0.00 73 1011.8
20260903011746 86 190 3.0 6.0 0.00 0.00 0.00 73 1011.6
20260903011245 86 191 4.0 6.0 0.00 0.00 0.00 73 1011.5
20260903010741 86 196 4.0 6.0 0.00 0.00 0.00 74 1011.6
20260903010236 86 165 4.0 5.0 0.00 0.00 0.00 73 1011.7
20260903005734 86 196 4.0 5.0 0.00 0.00 0.00 73 1011.5
20260903005229 87 189 2.0 3.0 0.00 0.00 0.00 73 1011.4
20260903004725 87 176 3.0 7.0 0.00 0.00 0.00 72 1011.7
20260903004221 87 178 2.0 3.0 0.00 0.00 0.00 74 1011.7
20260903003715 87 236 2.0 2.0 0.00 0.00 0.00 73 1011.4
20260903003211 88 185 2.0 3.0 0.00 0.00 0.00 72 1011.6
20260903002705 88 177 3.0 5.0 0.00 0.00 0.00 70 1011.5
20260903002159 89 214 3.0 5.0 0.00 0.00 0.00 70 1011.5
20260903001655 89 205 2.0 5.0 0.00 0.00 0.00 70 1011.5
20260903001148 89 203 2.0 5.0 0.00 0.00 0.00 70 1011.5
20260903000644 90 191 3.0 3.0 0.00 0.00 0.00 69 1011.4
20260903000138 90 198 3.0 6.0 0.00 0.00 0.00 68 1011.4
20260902235636 90 201 3.0 5.0 0.00 0.00 0.00 67 1011.4
20260902235126 91 191 3.0 3.0 0.00 0.00 0.00 66 1011.6
20260902234620 91 190 2.0 3.0 0.00 0.00 0.00 65 1011.7
20260902234118 92 189 3.0 5.0 0.00 0.00 0.00 63 1011.5
20260902233614 92 177 3.0 3.0 0.00 0.00 0.00 64 1011.8
20260902233108 93 204 3.0 5.0 0.00 0.00 0.00 64 1011.7
20260902232607 93 199 3.0 5.0 0.00 0.00 0.00 62 1011.7
20260902232101 93 197 3.0 5.0 0.00 0.00 0.00 63 1011.8
20260902231556 93 183 3.0 5.0 0.00 0.00 0.00 63 1011.6
20260902231050 94 256 1.0 2.0 0.00 0.00 0.00 62 1011.4
20260902230545 95 238 2.0 3.0 0.00 0.00 0.00 59 1011.7
20260902230044 95 250 1.0 3.0 0.00 0.00 0.00 60 1011.7
20260902225539 94 221 3.0 5.0 0.00 0.00 0.00 58 1011.6
20260902225039 95 184 4.0 6.0 0.00 0.00 0.00 57 1011.7
20260902224538 95 209 3.0 6.0 0.00 0.00 0.00 58 1011.7
20260902224034 95 219 4.0 5.0 0.00 0.00 0.00 57 1011.6
20260902223530 95 216 3.0 6.0 0.00 0.00 0.00 57 1011.7
20260902223029 95 210 4.0 7.0 0.00 0.00 0.00 56 1011.7
20260902222528 95 175 6.0 8.0 0.00 0.00 0.00 55 1011.7
20260902222026 96 232 5.0 8.0 0.00 0.00 0.00 54 1011.9
20260902221521 95 268 2.0 6.0 0.00 0.00 0.00 56 1012.0
20260902221016 95 225 5.0 7.0 0.00 0.00 0.00 55 1011.6
20260902220511 95 211 4.0 7.0 0.00 0.00 0.00 54 1011.7
20260902220006 96 199 5.0 6.0 0.00 0.00 0.00 55 1011.9
20260902215502 96 223 3.0 6.0 0.00 0.00 0.00 54 1011.8
20260902214958 96 189 5.0 8.0 0.00 0.00 0.00 52 1012.0
20260902214457 95 218 5.0 9.0 0.00 0.00 0.00 53 1011.8
20260902213955 95 219 5.0 8.0 0.00 0.00 0.00 54 1012.0
20260902213452 96 195 3.0 8.0 0.00 0.00 0.00 54 1012.0
20260902212951 96 243 4.0 7.0 0.00 0.00 0.00 52 1011.9
20260902212447 96 237 8.0 13.0 0.00 0.00 0.00 51 1012.0
20260902211943 96 223 4.0 10.0 0.00 0.00 0.00 52 1012.0
20260902211439 96 219 9.0 16.0 0.00 0.00 0.00 51 1011.9
20260902210933 96 242 5.0 8.0 0.00 0.00 0.00 54 1012.1
20260902210428 96 265 4.0 8.0 0.00 0.00 0.00 53 1012.1
20260902205926 96 229 6.0 8.0 0.00 0.00 0.00 51 1012.0
20260902205416 96 241 5.0 8.0 0.00 0.00 0.00 54 1012.1
20260902204912 96 194 6.0 11.0 0.00 0.00 0.00 52 1011.9
20260902204411 96 225 7.0 8.0 0.00 0.00 0.00 54 1012.0
20260902203907 96 230 7.0 10.0 0.00 0.00 0.00 54 1012.1
20260902203402 96 206 5.0 9.0 0.00 0.00 0.00 54 1012.1
20260902202856 96 149 7.0 11.0 0.00 0.00 0.00 54 1012.2
20260902202352 96 196 5.0 8.0 0.00 0.00 0.00 55 1012.2
20260902201849 96 206 5.0 7.0 0.00 0.00 0.00 55 1012.2
20260902201348 97 214 5.0 6.0 0.00 0.00 0.00 54 1012.5
20260902200843 97 212 7.0 8.0 0.00 0.00 0.00 53 1012.4
20260902200339 97 197 6.0 10.0 0.00 0.00 0.00 54 1012.7
20260902195834 96 205 5.0 9.0 0.00 0.00 0.00 54 1012.7
20260902195333 96 199 7.0 9.0 0.00 0.00 0.00 54 1012.5
20260902194828 95 194 6.0 11.0 0.00 0.00 0.00 54 1012.7
20260902194327 95 220 7.0 10.0 0.00 0.00 0.00 56 1012.6
20260902193823 96 200 8.0 13.0 0.00 0.00 0.00 55 1012.8
20260902193319 96 210 6.0 10.0 0.00 0.00 0.00 55 1012.8
20260902192818 95 218 7.0 11.0 0.00 0.00 0.00 54 1012.9
20260902192316 96 207 9.0 11.0 0.00 0.00 0.00 54 1012.8
20260902191816 95 230 6.0 10.0 0.00 0.00 0.00 54 1012.9
20260902191312 95 208 9.0 13.0 0.00 0.00 0.00 54 1012.8
20260902190807 95 234 4.0 9.0 0.00 0.00 0.00 56 1013.0
20260902190306 96 223 4.0 7.0 0.00 0.00 0.00 54 1013.1
20260902185803 95 228 5.0 13.0 0.00 0.00 0.00 55 1013.1
20260902185258 95 204 4.0 6.0 0.00 0.00 0.00 55 1013.2
20260902184754 94 209 5.0 9.0 0.00 0.00 0.00 58 1013.2
20260902184249 94 228 2.0 8.0 0.00 0.00 0.00 59 1013.1
20260902183744 94 212 7.0 9.0 0.00 0.00 0.00 59 1013.4
20260902183240 94 182 7.0 8.0 0.00 0.00 0.00 57 1013.6
20260902182736 93 294 4.0 7.0 0.00 0.00 0.00 59 1013.4
20260902182233 93 219 7.0 13.0 0.00 0.00 0.00 59 1013.5
20260902181729 93 239 6.0 11.0 0.00 0.00 0.00 58 1013.6
20260902181228 92 219 8.0 11.0 0.00 0.00 0.00 60 1013.7
20260902180723 92 229 4.0 7.0 0.00 0.00 0.00 59 1013.6
20260902180219 93 186 6.0 8.0 0.00 0.00 0.00 59 1013.5
20260902175713 92 257 4.0 10.0 0.00 0.00 0.00 60 1013.5
20260902175209 92 214 5.0 8.0 0.00 0.00 0.00 58 1013.5
20260902174705 91 238 5.0 10.0 0.00 0.00 0.00 59 1013.9
20260902174201 93 195 3.0 8.0 0.00 0.00 0.00 60 1013.9
20260902173656 92 207 3.0 6.0 0.00 0.00 0.00 58 1013.9
20260902173151 92 249 5.0 6.0 0.00 0.00 0.00 59 1013.9
20260902172646 91 212 4.0 9.0 0.00 0.00 0.00 62 1014.1
20260902172144 91 171 3.0 6.0 0.00 0.00 0.00 61 1013.9
20260902171640 90 167 7.0 13.0 0.00 0.00 0.00 61 1014.1
20260902171136 91 215 5.0 9.0 0.00 0.00 0.00 60 1014.2
20260902170631 90 230 8.0 11.0 0.00 0.00 0.00 60 1014.2
20260902170127 91 226 3.0 7.0 0.00 0.00 0.00 60 1014.2
20260902165627 90 223 5.0 8.0 0.00 0.00 0.00 60 1014.5
20260902165121 90 219 4.0 8.0 0.00 0.00 0.00 61 1014.5
20260902164616 90 212 5.0 7.0 0.00 0.00 0.00 61 1014.6
20260902164115 89 215 5.0 8.0 0.00 0.00 0.00 63 1014.3
20260902163611 89 218 4.0 6.0 0.00 0.00 0.00 62 1014.5
20260902163109 89 237 5.0 11.0 0.00 0.00 0.00 61 1014.5
20260902162609 89 185 3.0 9.0 0.00 0.00 0.00 63 1014.5
20260902162109 88 166 6.0 8.0 0.00 0.00 0.00 63 1014.6
20260902161604 88 179 5.0 10.0 0.00 0.00 0.00 63 1014.4
20260902161100 88 249 3.0 7.0 0.00 0.00 0.00 65 1014.3
20260902160555 88 198 6.0 8.0 0.00 0.00 0.00 63 1014.3
20260902160051 87 162 5.0 7.0 0.00 0.00 0.00 64 1014.6
20260902155544 88 212 4.0 7.0 0.00 0.00 0.00 65 1014.5
20260902155042 87 248 1.0 7.0 0.00 0.00 0.00 65 1014.4
20260902154538 88 215 4.0 6.0 0.00 0.00 0.00 65 1014.4
20260902154032 87 206 3.0 6.0 0.00 0.00 0.00 66 1014.5
20260902153531 87 144 4.0 6.0 0.00 0.00 0.00 67 1014.7
20260902153027 86 202 4.0 6.0 0.00 0.00 0.00 68 1014.6
20260902152523 86 162 4.0 7.0 0.00 0.00 0.00 68 1014.5
20260902152018 87 187 3.0 3.0 0.00 0.00 0.00 68 1014.7
20260902151514 86 167 3.0 7.0 0.00 0.00 0.00 70 1014.5
20260902151013 85 195 3.0 5.0 0.00 0.00 0.00 70 1014.4
20260902150510 85 147 3.0 5.0 0.00 0.00 0.00 71 1014.5
20260902150009 84 198 3.0 6.0 0.00 0.00 0.00 72 1014.4
20260902145504 84 159 3.0 7.0 0.00 0.00 0.00 73 1014.4
20260902144959 84 215 3.0 6.0 0.00 0.00 0.00 73 1014.5
20260902144456 83 190 3.0 3.0 0.00 0.00 0.00 74 1014.4
20260902143956 83 166 5.0 7.0 0.00 0.00 0.00 75 1014.5
20260902143451 82 172 4.0 7.0 0.00 0.00 0.00 75 1014.3
20260902142946 82 177 4.0 6.0 0.00 0.00 0.00 75 1014.4
20260902142443 82 203 4.0 6.0 0.00 0.00 0.00 76 1014.5
20260902141937 81 275 1.0 7.0 0.00 0.00 0.00 77 1014.7
20260902141433 81 152 6.0 8.0 0.00 0.00 0.00 77 1014.5
20260902140932 81 150 2.0 6.0 0.00 0.00 0.00 78 1014.7
20260902140428 81 227 2.0 5.0 0.00 0.00 0.00 78 1014.5
20260902135927 80 154 4.0 7.0 0.00 0.00 0.00 80 1014.6
20260902135423 79 194 3.0 6.0 0.00 0.00 0.00 80 1014.5
20260902134922 80 178 5.0 6.0 0.00 0.00 0.00 79 1014.5
20260902134418 79 218 2.0 6.0 0.00 0.00 0.00 79 1014.5
20260902133913 78 259 1.0 3.0 0.00 0.00 0.00 80 1014.6
20260902133412 78 211 2.0 5.0 0.00 0.00 0.00 80 1014.6
20260902132907 78 177 3.0 6.0 0.00 0.00 0.00 81 1014.8
20260902132402 77 181 3.0 5.0 0.00 0.00 0.00 82 1014.6
20260902131857 78 182 3.0 5.0 0.00 0.00 0.00 82 1014.6
20260902131355 78 256 1.0 1.0 0.00 0.00 0.00 79 1014.7
20260902130853 78 273 0.0 2.0 0.00 0.00 0.00 81 1014.8
20260902130350 77 174 5.0 5.0 0.00 0.00 0.00 83 1014.9
20260902125844 75 180 3.0 5.0 0.00 0.00 0.00 85 1014.8
20260902125341 75 204 2.0 2.0 0.00 0.00 0.00 85 1015.0
20260902124836 75 194 2.0 3.0 0.00 0.00 0.00 84 1015.0
20260902124332 75 259 1.0 2.0 0.00 0.00 0.00 85 1015.1
20260902123827 74 281 0.0 0.0 0.00 0.00 0.00 86 1015.2
20260902123323 74 281 0.0 1.0 0.00 0.00 0.00 87 1015.0
20260902122822 73 258 1.0 3.0 0.00 0.00 0.00 88 1014.8
20260902122318 73 198 2.0 2.0 0.00 0.00 0.00 89 1015.0
20260902121817 72 244 2.0 2.0 0.00 0.00 0.00 90 1015.0
20260902121313 72 319 0.0 0.0 0.00 0.00 0.00 90 1014.9
20260902120808 73 333 3.0 3.0 0.00 0.00 0.00 89 1015.2
20260902120305 73 246 1.0 3.0 0.00 0.00 0.00 87 1014.8
20260902115759 72 270 1.0 2.0 0.00 0.00 0.00 89 1014.8
20260902115256 73 325 2.0 2.0 0.00 0.00 0.00 89 1014.9